Language selection

My Weather Profile Weather Topics  | 

Atlantic - Labrador: Past 24 Hour Conditions

 

Cartwright Airport

08:00 PM ADT 21 June 2021
Disclaimer

This table is a summary of hourly weather conditions for the past 24 hours.
Please note that these observations might not always be representative of weather conditions over their associated marine area.

Date / Time
(ADT)
Wind(knots) Conditions Visibility(km) Pressure(kPa) Air tempC) Relative humidity(%) Dew pointC)
21 June 2021
20:00 NE 6 Sunny 16 100.8 10 84 7
19:00 N 6 Mostly Cloudy 16 100.8 9 87 7
18:00 N 8 Mostly Cloudy 16 100.8 10 83 7
17:00 NNE 8 Cloudy 16 100.8 11 83 8
16:00 NE 7 Cloudy 16 100.7 12 81 9
15:00 NE 8 Cloudy 16 100.7 12 83 9
14:00 N 6 Cloudy 16 100.7 11 83 9
13:00 N 5 Cloudy 16 100.7 10 89 8
12:00 NNE 5 Cloudy 16 100.6 10 92 9
11:00 NNE 5 Cloudy 16 100.6 10 93 9
10:00 N 4 Cloudy 16 100.6 9 95 8
9:00 NNE 5 Cloudy 16 100.6 9 93 8
8:00 NNE 8 Cloudy 16 100.6 8 94 7
7:00 NE 4 Cloudy 16 100.5 7 97 7
6:00 NE 6 Cloudy 16 100.5 7 98 7
5:00 NNE 5 Cloudy 16 100.4 7 98 6
4:00 NNE 9 Cloudy 16 100.4 7 98 7
3:00 NNE 7 Cloudy 16 100.4 7 98 7
2:00 NNE 9 Cloudy 16 100.3 8 98 7
1:00 NE 7 Cloudy 16 100.3 8 99 8
0:00 N 5 Cloudy 16 100.4 7 99 7
20 June 2021
23:00 N 7 Light Rain 16 100.4 7 98 7
22:00 NNE 8 Light Rain 16 100.4 7 98 7
21:00 N 10 gust 15 Cloudy 16 100.4 7 97 7
20:00 N 12 gust 17 Light Rain 16 100.3 8 97 8

Zoom-in to make a selection

Map of Atlantic - Labrador marine weather areas Kangiqsualujjuaq Airport Cape Kakkiviak Cape Kiglapait Cartwright Airport CFB Goose Bay Hopedale Mary's Harbour Nain Airport Makkovik Airport Saglek Tukialik Bay
Legend:
buoy Buoy
land station Land Station

Atlantic - Labrador Area

Another Region

What we are doing

Date modified: